Погода в Уджаре

Азербайджан     40°30′51″N   47°39′02″E
темп.,
°C
ветер,
м/с
пор.,
м/с
влажн.,
%
обл.,
%
осадки,
мм/ч
давл.,
гПа
погр.,
м
15 апреля, чт
чт1501:00+13ссз11606 0.0 101523
04:00+11в35730 0.0 101789
07:00+11в23740 0.0 101865
10:00+18в12472 0.0 1019709
13:00+23з13295 0.0 10171231
16:00+25юз12225 0.0 10141805
19:00+21ююв343354 0.0 101545
22:00+15вюв61158100 0.0 1018403
16 апреля, пт
пт1601:00+13в3761100 0.0 1018232
04:00+13юв1163100 0.0 101814
07:00+13з116298 0.0 101945
10:00+18ююв22455 0.0 1020689
13:00+22ююв22350 0.0 10181281
16:00+24юв32301 0.0 10161702
19:00+21юв22395 0.0 101716
22:00+15в45515 0.0 102089
17 апреля, сб
сб1701:00+14в33520 0.0 102033
04:00+12ю11565 0.0 101910
07:00+13з005929 0.0 101910
10:00+19ююз114169 0.0 1020564
13:00+23зюз1134100 0.0 10171079
16:00+25з113068 0.0 10161245
19:00+23юв2238100 0.0 101618
22:00+17вюв485493 0.0 1019182
18 апреля, вс
вс1801:00+15вюв365697 0.0 1019107
04:00+13ююв22586 0.0 101920
07:00+14вюв1260100 0.0 102064
10:00+19юв344398 0.0 1020732
13:00+23ююв323796 0.0 10171315
16:00+25ююз11345 0.0 10141593
19:00+22юз3343100 0.0 101541
22:00+18з2365100 0.1 1016112
19 апреля, пн
пн1901:00+16в2372100 0.0 101678
04:00+14в346870 0.0 101681
07:00+14в35675 0.0 1016148
10:00+20юв435522 0.0 1018762
13:00+24юв434575 0.0 10171477
16:00+26ююв543899 0.0 10151962
19:00+20ююв91046100 0.0 1017903
22:00+16ю5963100 0.0 1021566